| time (UTC) | temp C | wind direction | speed KPH | gust KPH | rain 1hr cm | rain 24hr cm | rain mn cm | humidity % | barometer mb |
| 20260507160044 | 19 | 0 | 0.0 | 0.0 | 0.00 | 0.15 | 0.15 | 91 | 1017.3 |
| 20260507155534 | 19 | 0 | 0.0 | 0.0 | 0.00 | 0.15 | 0.15 | 91 | 1017.3 |
| 20260507155038 | 19 | 0 | 0.0 | 0.0 | 0.00 | 0.15 | 0.15 | 91 | 1017.2 |
| 20260507154547 | 19 | 0 | 0.0 | 0.0 | 0.00 | 0.15 | 0.15 | 91 | 1017.3 |
| 20260507154035 | 19 | 0 | 0.0 | 3.2 | 0.00 | 0.15 | 0.15 | 91 | 1017.2 |
| 20260507153536 | 19 | 0 | 0.0 | 9.7 | 0.00 | 0.15 | 0.15 | 91 | 1017.1 |
| 20260507153054 | 19 | 0 | 1.6 | 9.7 | 0.00 | 0.15 | 0.15 | 91 | 1017.1 |
| 20260507152534 | 19 | 0 | 0.0 | 8.0 | 0.00 | 0.15 | 0.15 | 91 | 1017.1 |
| 20260507152034 | 19 | 133 | 0.0 | 4.8 | 0.00 | 0.15 | 0.15 | 91 | 1017.2 |
| 20260507151545 | 19 | 133 | 0.0 | 17.7 | 0.00 | 0.15 | 0.15 | 91 | 1017.1 |
| 20260507151034 | 19 | 130 | 3.2 | 17.7 | 0.00 | 0.15 | 0.15 | 91 | 1017.0 |
| 20260507150538 | 19 | 192 | 1.6 | 6.4 | 0.00 | 0.15 | 0.15 | 91 | 1017.0 |
| 20260507150045 | 19 | 195 | 0.0 | 6.4 | 0.00 | 0.15 | 0.15 | 91 | 1017.0 |
| 20260507145533 | 19 | 0 | 1.6 | 6.4 | 0.00 | 0.15 | 0.15 | 91 | 1017.0 |
| 20260507145032 | 19 | 246 | 0.0 | 3.2 | 0.00 | 0.15 | 0.15 | 91 | 1016.9 |
| 20260507144548 | 19 | 0 | 0.0 | 4.8 | 0.00 | 0.15 | 0.15 | 91 | 1016.9 |
| 20260507144034 | 19 | 0 | 0.0 | 4.8 | 0.00 | 0.15 | 0.15 | 91 | 1017.0 |
| 20260507143534 | 19 | 246 | 0.0 | 4.8 | 0.00 | 0.15 | 0.15 | 91 | 1016.9 |
| 20260507143042 | 19 | 0 | 0.0 | 4.8 | 0.00 | 0.15 | 0.15 | 91 | 1016.9 |
| 20260507142533 | 19 | 180 | 0.0 | 4.8 | 0.00 | 0.15 | 0.15 | 91 | 1016.8 |
| 20260507142033 | 19 | 179 | 1.6 | 4.8 | 0.00 | 0.15 | 0.15 | 91 | 1016.8 |
| 20260507141554 | 19 | 177 | 0.0 | 6.4 | 0.00 | 0.15 | 0.15 | 91 | 1016.8 |
| 20260507141033 | 19 | 0 | 1.6 | 6.4 | 0.00 | 0.15 | 0.15 | 91 | 1016.7 |
| 20260507140533 | 19 | 0 | 0.0 | 6.4 | 0.03 | 0.15 | 0.15 | 91 | 1016.7 |
| 20260507140106 | 19 | 119 | 0.0 | 9.7 | 0.03 | 0.15 | 0.15 | 91 | 1016.7 |
| 20260507135533 | 19 | 126 | 3.2 | 9.7 | 0.03 | 0.15 | 0.15 | 91 | 1016.7 |
| 20260507135033 | 19 | 165 | 0.0 | 6.4 | 0.05 | 0.15 | 0.15 | 91 | 1016.8 |
| 20260507134545 | 19 | 0 | 0.0 | 9.7 | 0.08 | 0.15 | 0.15 | 91 | 1016.8 |
| 20260507134033 | 19 | 0 | 3.2 | 9.7 | 0.10 | 0.15 | 0.15 | 91 | 1016.8 |
| 20260507133537 | 20 | 15 | 3.2 | 8.0 | 0.10 | 0.15 | 0.15 | 91 | 1016.7 |
| 20260507133044 | 19 | 0 | 1.6 | 12.9 | 0.10 | 0.15 | 0.15 | 91 | 1016.8 |
| 20260507132534 | 19 | 124 | 4.8 | 12.9 | 0.13 | 0.15 | 0.15 | 91 | 1016.8 |
| 20260507132036 | 20 | 129 | 4.8 | 12.9 | 0.13 | 0.15 | 0.15 | 91 | 1016.8 |
| 20260507131600 | 20 | 0 | 0.0 | 4.8 | 0.13 | 0.15 | 0.15 | 91 | 1016.8 |
| 20260507131037 | 20 | 0 | 0.0 | 4.8 | 0.13 | 0.15 | 0.15 | 91 | 1016.9 |
| 20260507130534 | 20 | 71 | 1.6 | 4.8 | 0.10 | 0.13 | 0.13 | 91 | 1016.9 |
| 20260507130051 | 20 | 180 | 0.0 | 4.8 | 0.10 | 0.13 | 0.13 | 91 | 1016.9 |
| 20260507125535 | 20 | 178 | 1.6 | 4.8 | 0.10 | 0.13 | 0.13 | 91 | 1016.9 |
| 20260507125034 | 20 | 177 | 1.6 | 4.8 | 0.08 | 0.10 | 0.10 | 91 | 1017.0 |
| 20260507124606 | 20 | 178 | 0.0 | 6.4 | 0.05 | 0.08 | 0.08 | 91 | 1017.1 |
| 20260507124033 | 20 | 177 | 1.6 | 6.4 | 0.03 | 0.05 | 0.05 | 91 | 1017.1 |
| 20260507123534 | 20 | 0 | 1.6 | 8.0 | 0.03 | 0.05 | 0.05 | 91 | 1017.1 |
| 20260507123056 | 20 | 0 | 1.6 | 8.0 | 0.03 | 0.05 | 0.05 | 91 | 1017.1 |
| 20260507122533 | 20 | 0 | 0.0 | 4.8 | 0.00 | 0.03 | 0.03 | 91 | 1017.1 |
| 20260507122030 | 20 | 0 | 0.0 | 4.8 | 0.03 | 0.03 | 0.03 | 91 | 1017.1 |
| 20260507121547 | 20 | 124 | 0.0 | 4.8 | 0.03 | 0.03 | 0.03 | 91 | 1017.2 |
| 20260507121030 | 20 | 0 | 0.0 | 4.8 | 0.03 | 0.03 | 0.03 | 91 | 1017.3 |
| 20260507120530 | 20 | 0 | 0.0 | 4.8 | 0.03 | 0.03 | 0.03 | 91 | 1017.2 |
| 20260507120046 | 20 | 206 | 1.6 | 4.8 | 0.03 | 0.03 | 0.03 | 91 | 1017.3 |
| 20260507115533 | 20 | 0 | 1.6 | 4.8 | 0.03 | 0.03 | 0.03 | 91 | 1017.3 |
| 20260507115030 | 20 | 0 | 0.0 | 4.8 | 0.03 | 0.03 | 0.03 | 91 | 1017.3 |
| 20260507114547 | 20 | 229 | 1.6 | 4.8 | 0.03 | 0.03 | 0.03 | 91 | 1017.3 |
| 20260507114031 | 20 | 0 | 1.6 | 4.8 | 0.03 | 0.03 | 0.03 | 91 | 1017.4 |
| 20260507113530 | 20 | 0 | 0.0 | 4.8 | 0.03 | 0.03 | 0.03 | 91 | 1017.5 |
| 20260507113043 | 20 | 230 | 1.6 | 4.8 | 0.03 | 0.03 | 0.03 | 91 | 1017.6 |
| 20260507112530 | 20 | 230 | 1.6 | 4.8 | 0.03 | 0.03 | 0.03 | 91 | 1017.7 |
| 20260507112030 | 20 | 0 | 0.0 | 8.0 | 0.00 | 0.00 | 0.00 | 91 | 1017.5 |
| 20260507111545 | 20 | 144 | 1.6 | 8.0 | 0.00 | 0.00 | 0.00 | 90 | 1017.5 |
| 20260507111030 | 20 | 0 | 0.0 | 8.0 | 0.00 | 0.00 | 0.00 | 90 | 1017.5 |
| 20260507110530 | 20 | 186 | 1.6 | 9.7 | 0.00 | 0.00 | 0.00 | 90 | 1017.6 |
| 20260507110046 | 20 | 275 | 0.0 | 9.7 | 0.00 | 0.00 | 0.00 | 90 | 1017.8 |
| 20260507105531 | 20 | 244 | 1.6 | 11.3 | 0.00 | 0.00 | 0.00 | 90 | 1017.8 |
| 20260507105031 | 20 | 327 | 1.6 | 11.3 | 0.00 | 0.00 | 0.00 | 90 | 1017.9 |
| 20260507104544 | 20 | 0 | 0.0 | 0.0 | 0.00 | 0.00 | 0.00 | 90 | 1017.9 |
| 20260507104031 | 20 | 0 | 0.0 | 0.0 | 0.00 | 0.00 | 0.00 | 90 | 1017.9 |
| 20260507103530 | 20 | 0 | 0.0 | 0.0 | 0.00 | 0.00 | 0.00 | 90 | 1018.0 |
| 20260507103043 | 20 | 0 | 0.0 | 0.0 | 0.00 | 0.00 | 0.00 | 90 | 1018.0 |
| 20260507102530 | 20 | 0 | 0.0 | 0.0 | 0.00 | 0.00 | 0.00 | 90 | 1018.0 |
| 20260507102031 | 20 | 0 | 0.0 | 0.0 | 0.00 | 0.00 | 0.00 | 90 | 1018.0 |
| 20260507101546 | 20 | 0 | 0.0 | 1.6 | 0.00 | 0.00 | 0.00 | 90 | 1018.0 |
| 20260507101031 | 20 | 0 | 0.0 | 8.0 | 0.00 | 0.00 | 0.00 | 90 | 1018.0 |
| 20260507100531 | 20 | 157 | 0.0 | 9.7 | 0.00 | 0.00 | 0.00 | 89 | 1018.0 |
| 20260507100041 | 20 | 0 | 1.6 | 9.7 | 0.00 | 0.00 | 0.00 | 90 | 1018.1 |
| 20260507095530 | 20 | 149 | 0.0 | 9.7 | 0.00 | 0.00 | 0.00 | 90 | 1018.2 |
| 20260507095029 | 20 | 123 | 1.6 | 9.7 | 0.00 | 0.00 | 0.00 | 90 | 1018.2 |
| 20260507094547 | 20 | 0 | 0.0 | 4.8 | 0.00 | 0.00 | 0.00 | 90 | 1018.1 |
| 20260507094031 | 20 | 0 | 0.0 | 3.2 | 0.00 | 0.00 | 0.00 | 90 | 1018.2 |
| 20260507093531 | 20 | 0 | 0.0 | 0.0 | 0.00 | 0.00 | 0.00 | 90 | 1018.3 |
| 20260507093045 | 20 | 0 | 0.0 | 0.0 | 0.00 | 0.00 | 0.00 | 89 | 1018.3 |
| 20260507092534 | 20 | 0 | 0.0 | 0.0 | 0.00 | 0.00 | 0.00 | 89 | 1018.4 |
| 20260507092034 | 21 | 0 | 0.0 | 4.8 | 0.00 | 0.00 | 0.00 | 89 | 1018.4 |
| 20260507091545 | 21 | 0 | 0.0 | 4.8 | 0.00 | 0.00 | 0.00 | 90 | 1018.4 |
| 20260507091031 | 21 | 242 | 0.0 | 3.2 | 0.00 | 0.00 | 0.00 | 89 | 1018.4 |
| 20260507090531 | 21 | 0 | 0.0 | 6.4 | 0.00 | 0.00 | 0.00 | 89 | 1018.5 |
| 20260507090043 | 21 | 0 | 0.0 | 6.4 | 0.00 | 0.00 | 0.00 | 90 | 1018.5 |
| 20260507085530 | 20 | 0 | 0.0 | 3.2 | 0.00 | 0.00 | 0.00 | 89 | 1018.5 |
| 20260507085030 | 21 | 0 | 0.0 | 3.2 | 0.00 | 0.00 | 0.00 | 89 | 1018.5 |
| 20260507084544 | 21 | 0 | 0.0 | 4.8 | 0.00 | 0.00 | 0.00 | 89 | 1018.4 |
| 20260507084036 | 21 | 0 | 0.0 | 4.8 | 0.00 | 0.00 | 0.00 | 89 | 1018.5 |
| 20260507083530 | 21 | 200 | 1.6 | 4.8 | 0.00 | 0.00 | 0.00 | 89 | 1018.4 |
| 20260507083049 | 21 | 0 | 0.0 | 6.4 | 0.00 | 0.00 | 0.00 | 89 | 1018.5 |
| 20260507082529 | 21 | 199 | 0.0 | 6.4 | 0.00 | 0.00 | 0.00 | 89 | 1018.6 |
| 20260507082030 | 21 | 0 | 1.6 | 6.4 | 0.00 | 0.00 | 0.00 | 89 | 1018.6 |
| 20260507081546 | 21 | 198 | 3.2 | 6.4 | 0.00 | 0.00 | 0.00 | 89 | 1018.6 |
| 20260507081030 | 21 | 197 | 3.2 | 6.4 | 0.00 | 0.00 | 0.00 | 89 | 1018.5 |
| 20260507080531 | 21 | 0 | 0.0 | 0.0 | 0.00 | 0.00 | 0.00 | 89 | 1018.5 |
| 20260507080116 | 21 | 0 | 0.0 | 0.0 | 0.00 | 0.00 | 0.00 | 89 | 1018.5 |
| 20260507075532 | 21 | 0 | 0.0 | 6.4 | 0.00 | 0.00 | 0.00 | 89 | 1018.5 |
| 20260507075030 | 21 | 0 | 0.0 | 6.4 | 0.00 | 0.00 | 0.00 | 89 | 1018.4 |
| 20260507074546 | 21 | 162 | 1.6 | 8.0 | 0.00 | 0.00 | 0.00 | 89 | 1018.5 |
| 20260507074032 | 21 | 159 | 3.2 | 8.0 | 0.00 | 0.00 | 0.00 | 89 | 1018.4 |
| 20260507073531 | 21 | 160 | 0.0 | 6.4 | 0.00 | 0.00 | 0.00 | 89 | 1018.4 |
| 20260507073057 | 21 | 0 | 0.0 | 6.4 | 0.00 | 0.00 | 0.00 | 89 | 1018.4 |
| 20260507072530 | 21 | 161 | 0.0 | 8.0 | 0.00 | 0.00 | 0.00 | 89 | 1018.3 |
| 20260507072029 | 21 | 161 | 3.2 | 8.0 | 0.00 | 0.00 | 0.00 | 89 | 1018.3 |
| 20260507071559 | 21 | 161 | 0.0 | 3.2 | 0.00 | 0.00 | 0.00 | 89 | 1018.2 |
| 20260507071032 | 21 | 0 | 0.0 | 6.4 | 0.00 | 0.00 | 0.00 | 89 | 1018.2 |
| 20260507070533 | 21 | 161 | 0.0 | 6.4 | 0.00 | 0.00 | 0.00 | 89 | 1018.1 |
| 20260507070046 | 21 | 0 | 1.6 | 6.4 | 0.00 | 0.00 | 0.00 | 89 | 1018.1 |
| 20260507065532 | 21 | 161 | 1.6 | 6.4 | 0.00 | 0.00 | 0.00 | 88 | 1018.0 |
| 20260507065033 | 21 | 158 | 1.6 | 4.8 | 0.00 | 0.00 | 0.00 | 88 | 1017.9 |
| 20260507064546 | 21 | 158 | 0.0 | 4.8 | 0.00 | 0.00 | 0.00 | 88 | 1017.8 |
| 20260507064035 | 21 | 158 | 1.6 | 4.8 | 0.00 | 0.00 | 0.00 | 88 | 1017.8 |
| 20260507063530 | 21 | 0 | 0.0 | 4.8 | 0.00 | 0.00 | 0.00 | 88 | 1017.7 |
| 20260507063042 | 21 | 157 | 0.0 | 4.8 | 0.00 | 0.00 | 0.00 | 88 | 1017.7 |
| 20260507062535 | 21 | 155 | 0.0 | 8.0 | 0.00 | 0.00 | 0.00 | 88 | 1017.5 |
| 20260507062034 | 21 | 155 | 1.6 | 8.0 | 0.00 | 0.00 | 0.00 | 88 | 1017.5 |
| 20260507061546 | 21 | 148 | 0.0 | 6.4 | 0.00 | 0.00 | 0.00 | 88 | 1017.4 |
| 20260507061034 | 21 | 93 | 0.0 | 6.4 | 0.00 | 0.00 | 0.00 | 88 | 1017.4 |
| 20260507060536 | 21 | 46 | 0.0 | 6.4 | 0.00 | 0.00 | 0.00 | 88 | 1017.4 |
| 20260507060047 | 21 | 333 | 3.2 | 4.8 | 0.00 | 0.00 | 0.00 | 88 | 1017.3 |
| 20260507055538 | 21 | 329 | 1.6 | 4.8 | 0.00 | 0.00 | 0.00 | 88 | 1017.3 |
| 20260507055033 | 21 | 0 | 0.0 | 4.8 | 0.00 | 0.00 | 0.00 | 88 | 1017.2 |
| 20260507054552 | 21 | 336 | 0.0 | 4.8 | 0.00 | 0.00 | 0.00 | 88 | 1017.2 |
| 20260507054036 | 21 | 340 | 0.0 | 3.2 | 0.00 | 0.00 | 0.00 | 88 | 1017.1 |
| 20260507053534 | 21 | 0 | 0.0 | 8.0 | 0.00 | 0.00 | 0.00 | 88 | 1016.9 |
| 20260507053049 | 21 | 340 | 1.6 | 8.0 | 0.00 | 0.00 | 0.00 | 88 | 1016.8 |
| 20260507052534 | 21 | 343 | 0.0 | 4.8 | 0.00 | 0.00 | 0.00 | 87 | 1016.8 |
| 20260507052035 | 21 | 343 | 1.6 | 4.8 | 0.00 | 0.00 | 0.00 | 87 | 1016.8 |
| 20260507051544 | 21 | 0 | 0.0 | 3.2 | 0.00 | 0.00 | 0.00 | 87 | 1016.7 |
| 20260507051033 | 21 | 0 | 0.0 | 3.2 | 0.00 | 0.00 | 0.00 | 87 | 1016.6 |
| 20260507050533 | 21 | 337 | 0.0 | 1.6 | 0.00 | 0.00 | 0.00 | 86 | 1016.6 |
| 20260507050050 | 22 | 0 | 0.0 | 0.0 | 0.00 | 0.00 | 0.00 | 86 | 1016.4 |
| 20260507045533 | 22 | 0 | 0.0 | 6.4 | 0.00 | 0.00 | 0.00 | 86 | 1016.4 |
| 20260507045034 | 22 | 0 | 0.0 | 6.4 | 0.00 | 0.00 | 0.00 | 86 | 1016.3 |
| 20260507044540 | 22 | 338 | 0.0 | 4.8 | 0.00 | 0.00 | 0.00 | 85 | 1016.2 |
| 20260507044036 | 22 | 338 | 0.0 | 9.7 | 0.00 | 0.00 | 0.00 | 85 | 1016.2 |
| 20260507043534 | 22 | 342 | 3.2 | 9.7 | 0.00 | 0.00 | 0.00 | 85 | 1016.2 |
| 20260507043047 | 22 | 360 | 1.6 | 6.4 | 0.00 | 0.00 | 0.00 | 84 | 1016.1 |
| 20260507042533 | 22 | 0 | 0.0 | 6.4 | 0.00 | 0.00 | 0.00 | 84 | 1016.0 |
| 20260507042034 | 22 | 0 | 0.0 | 6.4 | 0.00 | 0.00 | 0.00 | 83 | 1016.1 |
| 20260507041547 | 22 | 45 | 1.6 | 4.8 | 0.00 | 0.00 | 0.00 | 83 | 1016.0 |
| 20260507041034 | 22 | 46 | 0.0 | 4.8 | 0.00 | 0.00 | 0.00 | 83 | 1015.8 |
| 20260507040534 | 22 | 0 | 0.0 | 4.8 | 0.00 | 0.00 | 0.00 | 82 | 1015.9 |
| 20260507040057 | 22 | 0 | 0.0 | 6.4 | 0.00 | 0.00 | 0.00 | 82 | 1015.7 |
| 20260507035533 | 23 | 355 | 0.0 | 6.4 | 0.00 | 0.00 | 0.00 | 82 | 1015.8 |
| 20260507035033 | 23 | 9 | 0.0 | 14.5 | 0.00 | 0.00 | 0.00 | 82 | 1015.7 |
| 20260507034556 | 23 | 0 | 0.0 | 14.5 | 0.00 | 0.00 | 0.00 | 82 | 1015.7 |
| 20260507034033 | 23 | 53 | 1.6 | 6.4 | 0.00 | 0.00 | 0.00 | 81 | 1015.6 |
| 20260507033533 | 23 | 0 | 0.0 | 8.0 | 0.00 | 0.00 | 0.00 | 81 | 1015.6 |
| 20260507033043 | 23 | 71 | 0.0 | 8.0 | 0.00 | 0.00 | 0.00 | 81 | 1015.6 |
| 20260507032539 | 23 | 73 | 1.6 | 6.4 | 0.00 | 0.00 | 0.00 | 81 | 1015.5 |
| 20260507032032 | 23 | 38 | 3.2 | 11.3 | 0.00 | 0.00 | 0.00 | 81 | 1015.4 |
| 20260507031549 | 23 | 360 | 4.8 | 12.9 | 0.00 | 0.00 | 0.00 | 81 | 1015.3 |
| 20260507031033 | 23 | 14 | 1.6 | 14.5 | 0.00 | 0.00 | 0.00 | 81 | 1015.4 |
| 20260507030532 | 23 | 0 | 4.8 | 14.5 | 0.00 | 0.00 | 0.00 | 81 | 1015.3 |
| 20260507030052 | 23 | 327 | 4.8 | 12.9 | 0.00 | 0.00 | 0.00 | 80 | 1015.2 |
| 20260507025530 | 23 | 325 | 3.2 | 9.7 | 0.00 | 0.00 | 0.00 | 81 | 1015.2 |
| 20260507025031 | 23 | 0 | 1.6 | 9.7 | 0.00 | 0.00 | 0.00 | 81 | 1015.1 |
| 20260507024545 | 23 | 332 | 4.8 | 14.5 | 0.00 | 0.00 | 0.00 | 81 | 1015.1 |
| 20260507024031 | 23 | 342 | 4.8 | 14.5 | 0.00 | 0.00 | 0.00 | 80 | 1015.1 |
| 20260507023531 | 23 | 11 | 4.8 | 12.9 | 0.00 | 0.00 | 0.00 | 80 | 1015.1 |
| 20260507023044 | 24 | 344 | 3.2 | 11.3 | 0.00 | 0.00 | 0.00 | 79 | 1015.1 |
| 20260507022531 | 24 | 19 | 3.2 | 9.7 | 0.00 | 0.00 | 0.00 | 80 | 1015.1 |
| 20260507022031 | 24 | 0 | 1.6 | 12.9 | 0.00 | 0.00 | 0.00 | 80 | 1015.0 |
| 20260507021545 | 24 | 344 | 3.2 | 12.9 | 0.00 | 0.00 | 0.00 | 78 | 1015.1 |
| 20260507021033 | 25 | 336 | 4.8 | 12.9 | 0.00 | 0.00 | 0.00 | 78 | 1015.3 |
| 20260507020532 | 25 | 319 | 3.2 | 12.9 | 0.00 | 0.00 | 0.00 | 78 | 1015.4 |
| 20260507020047 | 25 | 319 | 1.6 | 9.7 | 0.00 | 0.00 | 0.00 | 78 | 1015.4 |
| 20260507015533 | 25 | 30 | 1.6 | 14.5 | 0.00 | 0.00 | 0.00 | 79 | 1015.4 |
| 20260507015031 | 24 | 13 | 4.8 | 14.5 | 0.00 | 0.00 | 0.00 | 79 | 1015.5 |
| 20260507014559 | 24 | 39 | 4.8 | 12.9 | 0.00 | 0.00 | 0.00 | 79 | 1015.4 |
| 20260507014035 | 24 | 340 | 3.2 | 11.3 | 0.00 | 0.00 | 0.00 | 80 | 1015.5 |
| 20260507013536 | 24 | 51 | 3.2 | 16.1 | 0.00 | 0.00 | 0.00 | 79 | 1015.5 |
| 20260507013045 | 24 | 336 | 4.8 | 16.1 | 0.00 | 0.00 | 0.00 | 79 | 1015.4 |
| 20260507012533 | 24 | 329 | 6.4 | 16.1 | 0.00 | 0.00 | 0.00 | 79 | 1015.4 |
| 20260507012033 | 24 | 5 | 4.8 | 16.1 | 0.00 | 0.00 | 0.00 | 79 | 1015.4 |
| 20260507011555 | 24 | 5 | 4.8 | 14.5 | 0.00 | 0.00 | 0.00 | 78 | 1015.4 |
| 20260507011032 | 25 | 321 | 1.6 | 9.7 | 0.00 | 0.00 | 0.00 | 79 | 1015.5 |
| 20260507010533 | 24 | 323 | 3.2 | 12.9 | 0.00 | 0.00 | 0.00 | 78 | 1015.6 |
| 20260507010045 | 25 | 43 | 4.8 | 12.9 | 0.00 | 0.00 | 0.00 | 78 | 1015.6 |
| 20260507005533 | 25 | 325 | 3.2 | 12.9 | 0.00 | 0.00 | 0.00 | 79 | 1015.6 |
| 20260507005030 | 25 | 0 | 3.2 | 12.9 | 0.00 | 0.00 | 0.00 | 78 | 1015.6 |
| 20260507004546 | 25 | 315 | 1.6 | 11.3 | 0.00 | 0.00 | 0.00 | 78 | 1015.7 |
| 20260507004033 | 25 | 346 | 4.8 | 11.3 | 0.00 | 0.00 | 0.00 | 78 | 1015.6 |
| 20260507003537 | 25 | 331 | 1.6 | 9.7 | 0.00 | 0.00 | 0.00 | 78 | 1015.8 |
| 20260507003043 | 25 | 326 | 1.6 | 11.3 | 0.00 | 0.00 | 0.00 | 79 | 1015.7 |
| 20260507002533 | 25 | 320 | 3.2 | 12.9 | 0.00 | 0.00 | 0.00 | 78 | 1015.8 |
| 20260507002033 | 25 | 67 | 3.2 | 14.5 | 0.00 | 0.00 | 0.00 | 78 | 1015.8 |
| 20260507001555 | 25 | 326 | 6.4 | 14.5 | 0.00 | 0.00 | 0.00 | 78 | 1015.9 |
| 20260507001034 | 25 | 331 | 6.4 | 11.3 | 0.00 | 0.00 | 0.00 | 79 | 1016.0 |
| 20260507000534 | 25 | 355 | 1.6 | 12.9 | 0.00 | 0.00 | 0.00 | 79 | 1016.0 |
| 20260507000046 | 24 | 11 | 4.8 | 12.9 | 0.00 | 0.00 | 0.00 | 79 | 1016.0 |
| 20260506235535 | 24 | 30 | 6.4 | 16.1 | 0.00 | 0.00 | 0.00 | 79 | 1016.0 |
| 20260506235035 | 24 | 314 | 4.8 | 16.1 | 0.00 | 0.00 | 0.00 | 79 | 1016.0 |
| 20260506234546 | 25 | 323 | 6.4 | 14.5 | 0.00 | 0.00 | 0.00 | 78 | 1016.0 |
| 20260506234034 | 25 | 5 | 8.0 | 19.3 | 0.00 | 0.00 | 0.00 | 79 | 1015.9 |
| 20260506233534 | 25 | 319 | 6.4 | 19.3 | 0.00 | 0.00 | 0.00 | 78 | 1015.9 |
| 20260506233041 | 25 | 33 | 6.4 | 12.9 | 0.00 | 0.00 | 0.00 | 78 | 1016.0 |
| 20260506232534 | 25 | 311 | 4.8 | 12.9 | 0.00 | 0.00 | 0.00 | 78 | 1016.0 |
| 20260506232033 | 25 | 360 | 4.8 | 12.9 | 0.00 | 0.00 | 0.00 | 79 | 1016.0 |
| 20260506231542 | 25 | 345 | 3.2 | 14.5 | 0.00 | 0.00 | 0.00 | 78 | 1016.2 |
| 20260506231033 | 25 | 333 | 4.8 | 16.1 | 0.00 | 0.00 | 0.00 | 78 | 1016.2 |
| 20260506230536 | 25 | 327 | 8.0 | 16.1 | 0.00 | 0.00 | 0.00 | 77 | 1016.1 |
| 20260506230052 | 25 | 0 | 1.6 | 12.9 | 0.00 | 0.00 | 0.00 | 79 | 1016.2 |
| 20260506225535 | 25 | 84 | 4.8 | 12.9 | 0.00 | 0.00 | 0.00 | 78 | 1016.3 |
| 20260506225033 | 25 | 63 | 3.2 | 9.7 | 0.00 | 0.00 | 0.00 | 79 | 1016.3 |
| 20260506224546 | 25 | 235 | 1.6 | 9.7 | 0.00 | 0.00 | 0.00 | 79 | 1016.3 |
| 20260506224033 | 25 | 319 | 1.6 | 9.7 | 0.00 | 0.00 | 0.00 | 79 | 1016.4 |
| 20260506223533 | 25 | 310 | 3.2 | 11.3 | 0.00 | 0.00 | 0.00 | 79 | 1016.5 |
| 20260506223043 | 25 | 339 | 3.2 | 11.3 | 0.00 | 0.00 | 0.00 | 79 | 1016.5 |
| 20260506222534 | 24 | 311 | 4.8 | 12.9 | 0.00 | 0.00 | 0.00 | 80 | 1016.5 |
| 20260506222034 | 24 | 327 | 4.8 | 14.5 | 0.00 | 0.00 | 0.00 | 79 | 1016.6 |
| 20260506221543 | 24 | 327 | 1.6 | 14.5 | 0.00 | 0.00 | 0.00 | 79 | 1016.6 |
| 20260506221034 | 25 | 360 | 3.2 | 9.7 | 0.00 | 0.00 | 0.00 | 78 | 1016.7 |
| 20260506220533 | 25 | 331 | 3.2 | 12.9 | 0.00 | 0.00 | 0.00 | 78 | 1016.7 |
| 20260506220057 | 25 | 320 | 3.2 | 12.9 | 0.00 | 0.00 | 0.00 | 79 | 1016.7 |
| 20260506215536 | 25 | 311 | 3.2 | 16.1 | 0.00 | 0.00 | 0.00 | 78 | 1016.8 |
| 20260506215034 | 25 | 327 | 6.4 | 16.1 | 0.00 | 0.00 | 0.00 | 78 | 1016.9 |
| 20260506214545 | 25 | 31 | 1.6 | 14.5 | 0.00 | 0.00 | 0.00 | 79 | 1016.9 |
| 20260506214034 | 25 | 336 | 4.8 | 14.5 | 0.00 | 0.00 | 0.00 | 79 | 1017.0 |
| 20260506213533 | 25 | 324 | 4.8 | 14.5 | 0.00 | 0.00 | 0.00 | 79 | 1017.1 |
| 20260506213046 | 24 | 315 | 4.8 | 14.5 | 0.00 | 0.00 | 0.00 | 79 | 1017.1 |
| 20260506212534 | 23 | 327 | 4.8 | 12.9 | 0.00 | 0.00 | 0.00 | 80 | 1017.2 |
| 20260506212034 | 23 | 344 | 4.8 | 12.9 | 0.00 | 0.00 | 0.00 | 81 | 1017.2 |
| 20260506211547 | 23 | 311 | 4.8 | 11.3 | 0.00 | 0.00 | 0.00 | 81 | 1017.2 |
| 20260506211035 | 23 | 315 | 4.8 | 14.5 | 0.00 | 0.00 | 0.00 | 82 | 1017.3 |
| 20260506210538 | 23 | 355 | 3.2 | 14.5 | 0.00 | 0.00 | 0.00 | 82 | 1017.3 |
| 20260506210130 | 23 | 311 | 4.8 | 12.9 | 0.00 | 0.00 | 0.00 | 82 | 1017.3 |
| 20260506205531 | 23 | 323 | 3.2 | 11.3 | 0.00 | 0.00 | 0.00 | 82 | 1017.3 |
| 20260506205031 | 23 | 339 | 4.8 | 12.9 | 0.00 | 0.00 | 0.00 | 81 | 1017.3 |
| 20260506204541 | 23 | 321 | 0.0 | 12.9 | 0.00 | 0.00 | 0.00 | 81 | 1017.2 |
| 20260506204034 | 23 | 5 | 3.2 | 8.0 | 0.00 | 0.00 | 0.00 | 81 | 1017.3 |
| 20260506203533 | 23 | 355 | 0.0 | 8.0 | 0.00 | 0.00 | 0.00 | 81 | 1017.3 |
| 20260506203130 | 23 | 355 | 1.6 | 6.4 | 0.00 | 0.00 | 0.00 | 81 | 1017.4 |
| 20260506202530 | 23 | 355 | 3.2 | 6.4 | 0.00 | 0.00 | 0.00 | 80 | 1017.4 |
| 20260506202033 | 23 | 355 | 3.2 | 8.0 | 0.00 | 0.00 | 0.00 | 81 | 1017.3 |
| 20260506201548 | 23 | 355 | 3.2 | 8.0 | 0.00 | 0.00 | 0.00 | 81 | 1017.3 |
| 20260506201030 | 23 | 327 | 1.6 | 8.0 | 0.00 | 0.00 | 0.00 | 81 | 1017.2 |
| 20260506200530 | 23 | 329 | 3.2 | 9.7 | 0.00 | 0.00 | 0.00 | 81 | 1017.3 |
| 20260506200050 | 23 | 340 | 3.2 | 9.7 | 0.00 | 0.00 | 0.00 | 80 | 1017.3 |
| 20260506195531 | 23 | 28 | 3.2 | 6.4 | 0.00 | 0.00 | 0.00 | 80 | 1017.3 |
| 20260506195031 | 23 | 9 | 1.6 | 8.0 | 0.00 | 0.00 | 0.00 | 80 | 1017.4 |
| 20260506194550 | 23 | 5 | 3.2 | 8.0 | 0.00 | 0.00 | 0.00 | 80 | 1017.3 |
| 20260506194031 | 23 | 0 | 1.6 | 11.3 | 0.00 | 0.00 | 0.00 | 81 | 1017.3 |
| 20260506193530 | 23 | 297 | 1.6 | 11.3 | 0.00 | 0.00 | 0.00 | 81 | 1017.3 |
| 20260506193041 | 23 | 333 | 4.8 | 8.0 | 0.00 | 0.00 | 0.00 | 81 | 1017.3 |
| 20260506192530 | 23 | 315 | 1.6 | 11.3 | 0.00 | 0.00 | 0.00 | 81 | 1017.3 |
| 20260506192030 | 23 | 316 | 4.8 | 12.9 | 0.00 | 0.00 | 0.00 | 82 | 1017.2 |
| 20260506191544 | 22 | 295 | 6.4 | 12.9 | 0.00 | 0.00 | 0.00 | 81 | 1017.2 |
| 20260506191030 | 22 | 309 | 4.8 | 9.7 | 0.00 | 0.00 | 0.00 | 82 | 1017.1 |
| 20260506190529 | 22 | 315 | 3.2 | 8.0 | 0.00 | 0.00 | 0.00 | 82 | 1017.1 |
| 20260506190047 | 22 | 333 | 3.2 | 6.4 | 0.00 | 0.00 | 0.00 | 82 | 1017.1 |
| 20260506185533 | 23 | 45 | 1.6 | 6.4 | 0.00 | 0.00 | 0.00 | 82 | 1017.1 |
| 20260506185031 | 22 | 50 | 1.6 | 6.4 | 0.00 | 0.00 | 0.00 | 82 | 1017.1 |
| 20260506184554 | 22 | 50 | 3.2 | 6.4 | 0.00 | 0.00 | 0.00 | 82 | 1017.0 |
| 20260506184032 | 22 | 113 | 1.6 | 6.4 | 0.00 | 0.00 | 0.00 | 82 | 1017.1 |
| 20260506183531 | 22 | 115 | 0.0 | 4.8 | 0.00 | 0.00 | 0.00 | 82 | 1017.0 |
| 20260506183045 | 22 | 116 | 0.0 | 3.2 | 0.00 | 0.00 | 0.00 | 82 | 1016.9 |
| 20260506182531 | 22 | 116 | 0.0 | 4.8 | 0.00 | 0.00 | 0.00 | 82 | 1016.8 |
| 20260506182031 | 22 | 116 | 1.6 | 4.8 | 0.00 | 0.00 | 0.00 | 83 | 1016.8 |
| 20260506181542 | 22 | 116 | 1.6 | 4.8 | 0.00 | 0.00 | 0.00 | 83 | 1016.8 |
| 20260506181033 | 22 | 0 | 0.0 | 4.8 | 0.00 | 0.00 | 0.00 | 84 | 1016.7 |
| 20260506180533 | 22 | 0 | 0.0 | 4.8 | 0.00 | 0.00 | 0.00 | 84 | 1016.6 |
| 20260506180047 | 22 | 0 | 1.6 | 4.8 | 0.00 | 0.00 | 0.00 | 84 | 1016.7 |
| 20260506175531 | 22 | 117 | 0.0 | 6.4 | 0.00 | 0.00 | 0.00 | 84 | 1016.7 |
| 20260506175030 | 21 | 0 | 1.6 | 6.4 | 0.00 | 0.00 | 0.00 | 85 | 1016.6 |
| 20260506174544 | 21 | 0 | 0.0 | 0.0 | 0.00 | 0.00 | 0.00 | 85 | 1016.6 |
| 20260506174030 | 21 | 0 | 0.0 | 0.0 | 0.00 | 0.00 | 0.00 | 85 | 1016.5 |
| 20260506173530 | 21 | 0 | 0.0 | 0.0 | 0.00 | 0.00 | 0.00 | 85 | 1016.3 |
| 20260506173054 | 21 | 0 | 0.0 | 0.0 | 0.00 | 0.00 | 0.00 | 85 | 1016.3 |
| 20260506172530 | 20 | 0 | 0.0 | 0.0 | 0.00 | 0.00 | 0.00 | 85 | 1016.3 |
| 20260506172031 | 20 | 0 | 0.0 | 0.0 | 0.00 | 0.00 | 0.00 | 85 | 1016.2 |
| 20260506171546 | 20 | 0 | 0.0 | 1.6 | 0.00 | 0.00 | 0.00 | 85 | 1016.1 |
| 20260506171032 | 20 | 0 | 0.0 | 3.2 | 0.00 | 0.00 | 0.00 | 85 | 1016.0 |
| 20260506170533 | 20 | 122 | 0.0 | 3.2 | 0.00 | 0.00 | 0.00 | 84 | 1015.9 |
| 20260506170046 | 19 | 0 | 0.0 | 4.8 | 0.00 | 0.00 | 0.00 | 83 | 1015.9 |
| 20260506165530 | 19 | 122 | 1.6 | 4.8 | 0.00 | 0.00 | 0.00 | 83 | 1015.7 |
| 20260506165031 | 19 | 122 | 3.2 | 6.4 | 0.00 | 0.00 | 0.00 | 83 | 1015.6 |
| 20260506164554 | 18 | 123 | 3.2 | 6.4 | 0.00 | 0.00 | 0.00 | 83 | 1015.7 |
| 20260506164030 | 18 | 124 | 1.6 | 4.8 | 0.00 | 0.00 | 0.00 | 83 | 1015.6 |
| 20260506163533 | 18 | 124 | 1.6 | 6.4 | 0.00 | 0.00 | 0.00 | 83 | 1015.7 |
| 20260506163103 | 18 | 124 | 1.6 | 6.4 | 0.00 | 0.00 | 0.00 | 83 | 1015.6 |
| 20260506162530 | 18 | 127 | 1.6 | 4.8 | 0.00 | 0.00 | 0.00 | 82 | 1015.6 |
| 20260506162030 | 19 | 128 | 0.0 | 4.8 | 0.00 | 0.00 | 0.00 | 82 | 1015.5 |
| 20260506161542 | 19 | 128 | 1.6 | 6.4 | 0.00 | 0.00 | 0.00 | 82 | 1015.5 |
| 20260506161030 | 19 | 128 | 1.6 | 6.4 | 0.00 | 0.00 | 0.00 | 83 | 1015.6 |
| 20260506160531 | 18 | 128 | 1.6 | 6.4 | 0.00 | 0.00 | 0.00 | 83 | 1015.5 |